Weather History for Cross City, FL

Change the Weather History Date:

Monday, October 28, 2013

  Actual Average Record
Temperature  
Mean Temperature 65 °F 67 °F  
Max Temperature 83 °F 80 °F 90 °F (2010)
Min Temperature 46 °F 54 °F 35 °F (2001)
Degree Days  
Heating Degree Days 0 2  
Month to date heating degree days 18 25  
Since 1 July heating degree days 18 25  
Cooling Degree Days 0 4  
Month to date cooling degree days 237 189  
Year to date cooling degree days 2736 2531  
Growing Degree Days 14 (Base 50)    
Moisture  
Dew Point 51 °F    
Average Humidity 71    
Maximum Humidity 100    
Minimum Humidity 36    
Precipitation  
Precipitation 0.00 in 0.10 in 0.29 in (2006)
Month to date precipitation 1.23 3.14  
Year to date precipitation 59.17 42.97  
Sea Level Pressure  
Sea Level Pressure 30.18 in    
Wind  
Wind Speed 1 mph (NE)    
Max Wind Speed 9 mph    
Max Gust Speed 15 mph    
T = Trace of Precipitation, MM = Missing Value Source: NWS Daily Summary

Daily Weather History Graph

Daily Weather History Graph

Search for Another Location

Airport:

Trip Planner

Search our weather history database for the weather conditions in past years. The results will help you decide how hot, cold, wet, or windy it might be!

Date:

Astronomy

Oct. 28, 2013 Rise Set
Actual Time 7:43 AM EDT 6:48 PM EDT
Civil Twilight 7:18 AM EDT 7:13 PM EDT
Nautical Twilight 6:50 AM EDT 7:41 PM EDT
Astronomical Twilight 6:22 AM EDT 8:09 PM EDT
Moon 2:01 AM EDT (10/28) 3:06 PM EDT (10/28)
Length of Visible Light 11h 54m
Length of Day
11h 05m
Waning Crescent, 34% of the Moon is Illuminated
Oct 28
Waning Crescent
Nov 3
New
Nov 10
First Quarter
Nov 17
Full
Nov 25
Last Quarter

Hourly Weather History & Observations

Time (EDT) Temp. Dew Point Humidity Pressure Visibility Wind Dir Wind Speed Gust Speed Precip Events Conditions
12:53 AM 52.0 °F 48.9 °F 89% 30.15 in - Calm Calm - N/A   Unknown
1:53 AM 50.0 °F 46.9 °F 89% 30.14 in - Calm Calm - N/A   Unknown
2:53 AM 48.9 °F 46.9 °F 93% 30.13 in - Calm Calm - N/A   Unknown
3:53 AM 48.9 °F 46.9 °F 93% 30.13 in - Calm Calm - N/A   Unknown
4:53 AM 48.9 °F 46.9 °F 93% 30.13 in - Calm Calm - N/A   Unknown
5:53 AM 46.9 °F 46.0 °F 97% 30.15 in - Calm Calm - N/A   Unknown
6:53 AM 46.0 °F 45.0 °F 96% 30.17 in - Calm Calm - N/A   Unknown
7:53 AM 46.9 °F 44.1 °F 90% 30.19 in - Calm Calm - N/A   Unknown
8:53 AM 55.0 °F 51.1 °F 86% 30.20 in - Calm Calm - N/A   Unknown
9:53 AM 64.9 °F 55.9 °F 73% 30.22 in - Calm Calm - N/A   Unknown
10:53 AM 72.0 °F 51.1 °F 48% 30.23 in - ENE 6.9 mph - N/A   Unknown
11:53 AM 75.0 °F 51.1 °F 43% 30.23 in - NE 5.8 mph - N/A   Unknown
12:53 PM 78.1 °F 52.0 °F 40% 30.21 in - North 5.8 mph - N/A   Unknown
1:53 PM 80.1 °F 52.0 °F 38% 30.19 in - Variable 3.5 mph - N/A   Unknown
2:53 PM 81.0 °F 52.0 °F 36% 30.17 in - Variable 3.5 mph - N/A   Unknown
3:53 PM 80.1 °F 51.1 °F 36% 30.15 in - Variable 4.6 mph - N/A   Unknown
4:53 PM 81.0 °F 51.1 °F 35% 30.15 in - Calm Calm - N/A   Unknown
5:53 PM 79.0 °F 52.0 °F 39% 30.16 in - Calm Calm - N/A   Unknown
6:53 PM 69.1 °F 57.9 °F 68% 30.16 in - Calm Calm - N/A   Unknown
7:53 PM 63.0 °F 57.0 °F 81% 30.17 in - Calm Calm - N/A   Unknown
8:53 PM 60.1 °F 55.0 °F 83% 30.19 in - Calm Calm - N/A   Unknown
9:53 PM 57.9 °F 55.0 °F 90% 30.21 in - Calm Calm - N/A   Unknown
10:53 PM 55.9 °F 53.1 °F 90% 30.23 in - Calm Calm - N/A   Unknown
11:53 PM 55.9 °F 53.1 °F 90% 30.23 in - Calm Calm - N/A   Unknown